Lander, WY

6:27 PM MST on February 26, 2017 (GMT -0700)
South Pass

Weather History for KFWZ - September, 2012

Change the Weather History Date:

Sunday, September 30, 2012

  Actual Average (KLND) Record (KLND)
Temperature  
Mean Temperature 54 °F -  
Max Temperature 64 °F 69 °F 86 °F (1980)
Min Temperature 44 °F 40 °F 20 °F (1985)
Degree Days  
Heating Degree Days 11    
Growing Degree Days 4 (Base 50)    
Moisture  
Dew Point 29 °F    
Average Humidity 41    
Maximum Humidity 58    
Minimum Humidity 26    
Precipitation  
Precipitation 0.00 in - - ()
Sea Level Pressure  
Sea Level Pressure 30.33 in    
Wind  
Wind Speed 10 mph ()    
Max Wind Speed 21 mph    
Max Gust Speed 26 mph    
Visibility 10.0 miles    
Events      
Averages and records for this station are not official NWS values.
T = Trace of Precipitation, MM = Missing Value Source: Averaged Metar Reports

Daily Weather History Graph

Daily Weather History Graph

Search for Another Location

Airport or City:

Trip Planner

Search our weather history database for the weather conditions in past years. The results will help you decide how hot, cold, wet, or windy it might be!

Date:

Astronomy

Sep. 30, 2012 Rise Set
Actual Time 7:11 AM MDT 6:57 PM MDT
Civil Twilight 6:43 AM MDT 7:25 PM MDT
Nautical Twilight 6:11 AM MDT 7:57 PM MDT
Astronomical Twilight 5:37 AM MDT 8:30 PM MDT
Moon 7:00 PM MDT (9/30) 7:47 AM MDT (9/30)
Length of Visible Light 12h 41m
Length of Day
11h 45m
Full, 100% of the Moon is Illuminated
Sep 30
Full
Oct 8
Last Quarter
Oct 15
New
Oct 21
First Quarter
Oct 29
Full

Hourly Weather History & Observations

Time (MDT) Temp. Windchill Dew Point Humidity Pressure Visibility Wind Dir Wind Speed Gust Speed Precip Events Conditions
12:15 AM 44.6 °F 38.8 °F 30.2 °F 57% 30.33 in 10.0 mi NW 11.5 mph - N/A   Clear
12:35 AM 46.4 °F 41.1 °F 30.2 °F 53% 30.32 in 10.0 mi NW 11.5 mph - N/A   Clear
12:55 AM 46.4 °F 40.7 °F 30.2 °F 53% 30.32 in 10.0 mi NW 12.7 mph - N/A   Clear
1:15 AM 46.4 °F 40.7 °F 30.2 °F 53% 30.31 in 10.0 mi NNW 12.7 mph - N/A   Clear
1:35 AM 46.4 °F 41.1 °F 30.2 °F 53% 30.31 in 10.0 mi NNW 11.5 mph - N/A   Clear
1:55 AM 46.4 °F 41.5 °F 30.2 °F 53% 30.31 in 10.0 mi NNW 10.4 mph - N/A   Clear
2:15 AM 46.4 °F 40.4 °F 30.2 °F 53% 30.32 in 10.0 mi NNW 13.8 mph - N/A   Clear
2:35 AM 46.4 °F 40.1 °F 30.2 °F 53% 30.31 in 10.0 mi NNW 15.0 mph - N/A   Clear
2:55 AM 46.4 °F 41.1 °F 30.2 °F 53% 30.32 in 10.0 mi NW 11.5 mph - N/A   Clear
3:15 AM 46.4 °F 40.1 °F 30.2 °F 53% 30.32 in 10.0 mi NNW 15.0 mph - N/A   Clear
3:35 AM 46.4 °F 42.4 °F 30.2 °F 53% 30.32 in 10.0 mi NW 8.1 mph - N/A   Clear
3:55 AM 46.4 °F 41.9 °F 28.4 °F 50% 30.32 in 10.0 mi NW 9.2 mph - N/A   Clear
4:35 AM 48.2 °F - 28.4 °F 46% 30.32 in 10.0 mi WNW 9.2 mph - N/A   Clear
4:55 AM 48.2 °F - 28.4 °F 46% 30.32 in 10.0 mi WNW 10.4 mph - N/A   Clear
5:15 AM 48.2 °F - 28.4 °F 46% 30.32 in 10.0 mi NW 8.1 mph - N/A   Clear
5:35 AM 46.4 °F 41.1 °F 28.4 °F 50% 30.32 in 10.0 mi WNW 11.5 mph - N/A   Clear
5:55 AM 46.4 °F 41.5 °F 28.4 °F 50% 30.32 in 10.0 mi WNW 10.4 mph - N/A   Clear
6:15 AM 48.2 °F - 28.4 °F 46% 30.32 in 10.0 mi WNW 8.1 mph - N/A   Clear
6:35 AM 48.2 °F - 28.4 °F 46% 30.32 in 10.0 mi WNW 9.2 mph - N/A   Clear
6:55 AM 50.0 °F - 28.4 °F 43% 30.32 in 10.0 mi WNW 8.1 mph - N/A   Clear
7:15 AM 50.0 °F - 28.4 °F 43% 30.33 in 10.0 mi West 4.6 mph - N/A   Clear
7:35 AM 48.2 °F - 28.4 °F 46% 30.34 in 10.0 mi WNW 6.9 mph - N/A   Clear
7:55 AM 50.0 °F - 28.4 °F 43% 30.34 in 10.0 mi West 4.6 mph - N/A   Clear
8:15 AM 51.8 °F - 28.4 °F 41% 30.34 in 10.0 mi WNW 4.6 mph - N/A   Clear
8:35 AM 51.8 °F - 30.2 °F 44% 30.36 in 10.0 mi NW 3.5 mph - N/A   Scattered Clouds
8:55 AM 55.4 °F - 30.2 °F 38% 30.36 in 10.0 mi Calm Calm - N/A   Mostly Cloudy
9:15 AM 55.4 °F - 30.2 °F 38% 30.36 in 10.0 mi North 4.6 mph - N/A   Scattered Clouds
9:35 AM 55.4 °F - 28.4 °F 36% 30.36 in 10.0 mi SW 3.5 mph - N/A   Clear
9:55 AM 55.4 °F - 28.4 °F 36% 30.36 in 10.0 mi SSW 5.8 mph - N/A   Clear
10:15 AM 57.2 °F - 30.2 °F 36% 30.36 in 10.0 mi SSW 4.6 mph 16.1 mph N/A   Clear
10:35 AM 59.0 °F - 28.4 °F 31% 30.36 in 10.0 mi South 9.2 mph - N/A   Clear
10:55 AM 57.2 °F - 28.4 °F 33% 30.36 in 10.0 mi SW 5.8 mph - N/A   Clear
11:15 AM 59.0 °F - 30.2 °F 34% 30.35 in 10.0 mi South 9.2 mph - N/A   Mostly Cloudy
11:35 AM 59.0 °F - 30.2 °F 34% 30.34 in 10.0 mi WSW 10.4 mph 17.3 mph N/A   Scattered Clouds
11:55 AM 60.8 °F - 30.2 °F 31% 30.34 in 10.0 mi WSW 15.0 mph 18.4 mph N/A   Scattered Clouds
12:15 PM 60.8 °F - 30.2 °F 31% 30.33 in 10.0 mi WSW 13.8 mph 17.3 mph N/A   Mostly Cloudy
12:35 PM 60.8 °F - 28.4 °F 29% 30.32 in 10.0 mi West 15.0 mph 21.9 mph N/A   Overcast
1:15 PM 62.6 °F - 26.6 °F 26% 30.32 in 10.0 mi WSW 13.8 mph 25.3 mph N/A   Mostly Cloudy
1:35 PM 62.6 °F - 26.6 °F 26% 30.31 in 10.0 mi WSW 12.7 mph - N/A   Mostly Cloudy
1:55 PM 62.6 °F - 28.4 °F 27% 30.30 in 10.0 mi WSW 12.7 mph 19.6 mph N/A   Mostly Cloudy
2:15 PM 64.4 °F - 28.4 °F 26% 30.29 in 10.0 mi West 15.0 mph 20.7 mph N/A   Mostly Cloudy
2:35 PM 62.6 °F - 26.6 °F 26% 30.29 in 10.0 mi WSW 17.3 mph 25.3 mph N/A   Scattered Clouds
2:55 PM 62.6 °F - 26.6 °F 26% 30.28 in 10.0 mi WSW 17.3 mph 24.2 mph N/A   Mostly Cloudy
3:15 PM 62.6 °F - 28.4 °F 27% 30.28 in 10.0 mi WSW 16.1 mph 23.0 mph N/A   Overcast
3:35 PM 64.4 °F - 28.4 °F 26% 30.29 in 10.0 mi West 5.8 mph - N/A   Overcast
3:55 PM 62.6 °F - 28.4 °F 27% 30.29 in 10.0 mi NNE 8.1 mph - N/A   Overcast
4:15 PM 62.6 °F - 28.4 °F 27% 30.29 in 10.0 mi NW 6.9 mph - N/A   Mostly Cloudy
4:35 PM 60.8 °F - 28.4 °F 29% 30.29 in 10.0 mi NNE 4.6 mph - N/A   Mostly Cloudy
4:55 PM 60.8 °F - 28.4 °F 29% 30.29 in 10.0 mi North 5.8 mph - N/A   Scattered Clouds
5:15 PM 60.8 °F - 28.4 °F 29% 30.30 in 10.0 mi NNE 4.6 mph - N/A   Scattered Clouds
5:35 PM 60.8 °F - 28.4 °F 29% 30.30 in 10.0 mi North 6.9 mph - N/A   Scattered Clouds
5:55 PM 60.8 °F - 28.4 °F 29% 30.30 in 10.0 mi North 6.9 mph - N/A   Mostly Cloudy
6:15 PM 59.0 °F - 28.4 °F 31% 30.30 in 10.0 mi North 5.8 mph - N/A   Scattered Clouds
6:35 PM 59.0 °F - 28.4 °F 31% 30.30 in 10.0 mi North 4.6 mph - N/A   Mostly Cloudy
6:55 PM 59.0 °F - 28.4 °F 31% 30.31 in 10.0 mi NNW 6.9 mph - N/A   Mostly Cloudy
7:15 PM 55.4 °F - 28.4 °F 36% 30.31 in 10.0 mi NNW 11.5 mph - N/A   Scattered Clouds
7:35 PM 55.4 °F - 28.4 °F 36% 30.31 in 10.0 mi North 13.8 mph - N/A   Clear
7:55 PM 55.4 °F - 28.4 °F 36% 30.32 in 10.0 mi North 16.1 mph - N/A   Clear
8:15 PM 53.6 °F - 30.2 °F 41% 30.32 in 10.0 mi North 17.3 mph - N/A   Clear
8:35 PM 53.6 °F - 30.2 °F 41% 30.33 in 10.0 mi North 17.3 mph 21.9 mph N/A   Clear
8:55 PM 51.8 °F - 32.0 °F 47% 30.34 in 10.0 mi North 20.7 mph 26.5 mph N/A   Clear
9:15 PM 51.8 °F - 32.0 °F 47% 30.36 in 10.0 mi North 20.7 mph 25.3 mph N/A   Clear
9:35 PM 50.0 °F - 32.0 °F 50% 30.38 in 10.0 mi North 17.3 mph 26.5 mph N/A   Clear
9:55 PM 50.0 °F - 33.8 °F 54% 30.38 in 10.0 mi North 17.3 mph - N/A   Clear
10:15 PM 50.0 °F - 33.8 °F 54% 30.39 in 10.0 mi North 17.3 mph - N/A   Clear
10:35 PM 48.2 °F - 33.8 °F 58% 30.39 in 10.0 mi NNW 18.4 mph 21.9 mph N/A   Clear
10:55 PM 48.2 °F - 32.0 °F 54% 30.40 in 10.0 mi North 18.4 mph - N/A   Clear
11:15 PM 46.4 °F 39.5 °F 32.0 °F 57% 30.40 in 10.0 mi North 17.3 mph - N/A   Clear
11:35 PM 46.4 °F 39.5 °F 32.0 °F 57% 30.40 in 10.0 mi North 17.3 mph - N/A   Clear
11:55 PM 46.4 °F 40.1 °F 32.0 °F 57% 30.39 in 10.0 mi North 15.0 mph - N/A   Clear